Location: Overspoor
(51.4747°N, 5.6641°E)
Time: 21:43:10
(UTC+02:00)

NANOSAT C BR1 - Pass Details

Date: 04 July 2022
Orbit: 584 x 599 km, 98.0° (Epoch: 08 August)

Event Time Altitude Azimuth Distance (km) Brightness Sun altitude
Rises 03:35:29 0° 17° (NNE) 2,853 ? -11.6°
Reaches altitude 10° 03:37:43 10° 22° (NNE) 1,948 ? -11.4°
Maximum altitude 03:41:52 54° 101° (E) 733 ? -11.1°
Enters shadow 03:45:48 11° 178° (S) 1,863 ? -10.8°
